UWE-4 (43880 NORAD) Tracking and Keplerian Element Data

This shows tracking and keplerian element data for the satellite.

Feedback or suggestion? Click here.




ElementValue
Catalog43880
NameUWE-4
Epoch Orbit38307
Epoch Day353.21927691
Epoch Year2025
RAAN269.9239
Inclination97.5865
Eccentricity0.0007271
Argument of Perigee246.638
Mean Anonmoly113.4098
Mean Motion15.34706356
Decay Rate0.00017452
L11 43880U 18111E 25353.21927691 .00017452 00000+0 52029-3 0 9999
L22 43880 97.5865 269.9239 0007271 246.6380 113.4098 15.34706356383078



Live tracking and technical data element details for UWE-4 (NORAD 43880). UWE-4 can be tracked NOW for your location showing map with azimuth and elevation plus other details from your city location.







IsCatalogInMostPopularTable: catalog: 43880, numindb: 426
Update: records affected: 1



GetName: 43880 UWE-4

Hit Count: updated at: Sat, 07 Mar 2026 06:04:55 GMT